Time,TemperatureF,DewpointF,PressureIn,WindDirection,WindDirectionDegrees,WindSpeedMPH,WindSpeedGustMPH,Humidity,HourlyPrecipIn,Conditions,Clouds,dailyrainin,SoftwareType,DateUTC
2013-09-01 00:02:00,56.8,48.9,30.48,WNW,292,2.0,5.0,75,0.00,,,0.00,meteohub,2013-08-31 23:02:00,
2013-09-01 00:07:00,57.0,49.1,30.48,WNW,285,4.0,8.0,75,0.00,,,0.00,meteohub,2013-08-31 23:07:00,
2013-09-01 00:12:00,57.0,49.1,30.48,WNW,301,2.0,8.0,75,0.00,,,0.00,meteohub,2013-08-31 23:12:00,
2013-09-01 00:17:00,57.0,49.1,30.48,WNW,294,6.0,8.0,75,0.00,,,0.00,meteohub,2013-08-31 23:17:00,
2013-09-01 00:22:00,57.0,49.1,30.48,WNW,286,6.0,8.0,75,0.00,,,0.00,meteohub,2013-08-31 23:22:00,
2013-09-01 00:27:00,57.0,49.1,30.48,WNW,287,5.0,8.0,75,0.00,,,0.00,meteohub,2013-08-31 23:27:00,
2013-09-01 00:32:00,57.0,49.1,30.48,WNW,296,6.0,9.0,75,0.00,,,0.00,meteohub,2013-08-31 23:32:00,
2013-09-01 00:37:00,57.0,49.1,30.48,WSW,251,5.0,9.0,75,0.00,,,0.00,meteohub,2013-08-31 23:37:00,
2013-09-01 00:42:00,57.0,49.1,30.48,WNW,303,6.0,11.0,75,0.00,,,0.00,meteohub,2013-08-31 23:42:00,
2013-09-01 00:47:00,57.0,49.1,30.48,West,275,5.0,11.0,75,0.00,,,0.00,meteohub,2013-08-31 23:47:00,
2013-09-01 00:52:00,57.0,48.7,30.48,WNW,282,8.0,11.0,74,0.00,,,0.00,meteohub,2013-08-31 23:52:00,
2013-09-01 00:57:00,57.2,48.9,30.48,West,279,8.0,16.0,74,0.00,,,0.00,meteohub,2013-08-31 23:57:00,
2013-09-01 01:02:00,57.4,48.7,30.48,WNW,302,8.0,16.0,73,0.00,,,0.00,meteohub,2013-09-01 00:02:00,
2013-09-01 01:07:00,57.4,49.1,30.48,WNW,290,4.0,15.0,74,0.00,,,0.00,meteohub,2013-09-01 00:07:00,
2013-09-01 01:12:00,57.4,49.1,30.48,West,271,8.0,15.0,74,0.00,,,0.00,meteohub,2013-09-01 00:12:00,
2013-09-01 01:17:00,57.4,49.1,30.48,WNW,291,1.0,11.0,74,0.00,,,0.00,meteohub,2013-09-01 00:17:00,
2013-09-01 01:22:00,57.4,49.1,30.48,WNW,292,1.0,10.0,74,0.00,,,0.00,meteohub,2013-09-01 00:22:00,
2013-09-01 01:27:00,57.4,49.1,30.48,WNW,297,1.0,9.0,74,0.00,,,0.00,meteohub,2013-09-01 00:27:00,
2013-09-01 01:32:00,57.2,49.3,30.48,WNW,295,1.0,8.0,75,0.00,,,0.00,meteohub,2013-09-01 00:32:00,
2013-09-01 01:37:00,57.4,49.5,30.47,West,275,6.0,8.0,75,0.00,,,0.00,meteohub,2013-09-01 00:37:00,
2013-09-01 01:42:00,57.2,49.3,30.47,NW,309,2.0,9.0,75,0.00,,,0.00,meteohub,2013-09-01 00:42:00,
2013-09-01 01:47:00,57.4,49.5,30.47,WNW,283,6.0,9.0,75,0.00,,,0.00,meteohub,2013-09-01 00:47:00,
2013-09-01 01:52:00,57.4,49.5,30.47,WNW,286,4.0,11.0,75,0.00,,,0.00,meteohub,2013-09-01 00:52:00,
2013-09-01 01:57:00,57.4,49.5,30.47,WNW,294,2.0,11.0,75,0.00,,,0.00,meteohub,2013-09-01 00:57:00,
2013-09-01 02:02:00,57.4,49.5,30.46,NW,307,4.0,9.0,75,0.00,,,0.00,meteohub,2013-09-01 01:02:00,
2013-09-01 02:07:00,57.4,49.5,30.46,West,279,2.0,9.0,75,0.00,,,0.00,meteohub,2013-09-01 01:07:00,
2013-09-01 02:12:00,57.6,49.6,30.46,WNW,292,2.0,9.0,75,0.00,,,0.00,meteohub,2013-09-01 01:12:00,
2013-09-01 02:17:00,57.6,49.6,30.46,WNW,300,5.0,10.0,75,0.00,,,0.00,meteohub,2013-09-01 01:17:00,
2013-09-01 02:22:00,57.6,50.0,30.45,West,281,4.0,10.0,76,0.00,,,0.00,meteohub,2013-09-01 01:22:00,
2013-09-01 02:27:00,57.6,50.0,30.45,NW,304,5.0,10.0,76,0.00,,,0.00,meteohub,2013-09-01 01:27:00,
2013-09-01 02:32:00,57.6,50.0,30.45,West,281,6.0,10.0,76,0.00,,,0.00,meteohub,2013-09-01 01:32:00,
2013-09-01 02:37:00,57.7,50.2,30.45,WNW,300,2.0,11.0,76,0.00,,,0.00,meteohub,2013-09-01 01:37:00,
2013-09-01 02:42:00,57.7,50.2,30.45,WNW,286,9.0,11.0,76,0.00,,,0.00,meteohub,2013-09-01 01:42:00,
2013-09-01 02:47:00,57.7,50.2,30.45,WNW,291,4.0,10.0,76,0.00,,,0.00,meteohub,2013-09-01 01:47:00,
2013-09-01 02:52:00,57.7,50.2,30.45,WNW,284,8.0,10.0,76,0.00,,,0.00,meteohub,2013-09-01 01:52:00,
2013-09-01 02:57:00,57.7,50.5,30.45,West,279,5.0,10.0,77,0.00,,,0.00,meteohub,2013-09-01 01:57:00,
2013-09-01 03:02:00,57.7,50.5,30.45,West,275,2.0,9.0,77,0.00,,,0.00,meteohub,2013-09-01 02:02:00,
2013-09-01 03:07:00,57.7,50.5,30.45,WNW,301,2.0,9.0,77,0.00,,,0.00,meteohub,2013-09-01 02:07:00,
2013-09-01 03:12:00,57.7,50.5,30.45,WNW,288,4.0,9.0,77,0.00,,,0.00,meteohub,2013-09-01 02:12:00,
2013-09-01 03:17:00,57.7,50.5,30.44,West,277,4.0,9.0,77,0.00,,,0.00,meteohub,2013-09-01 02:17:00,
2013-09-01 03:22:00,57.7,50.5,30.44,NW,307,5.0,10.0,77,0.00,,,0.00,meteohub,2013-09-01 02:22:00,
2013-09-01 03:27:00,57.6,50.4,30.44,WNW,288,1.0,10.0,77,0.00,,,0.00,meteohub,2013-09-01 02:27:00,
2013-09-01 03:32:00,57.6,50.4,30.44,NW,305,5.0,10.0,77,0.00,,,0.00,meteohub,2013-09-01 02:32:00,
2013-09-01 03:37:00,57.6,50.7,30.44,West,272,5.0,10.0,78,0.00,,,0.00,meteohub,2013-09-01 02:37:00,
2013-09-01 03:42:00,57.6,50.7,30.44,West,269,5.0,10.0,78,0.00,,,0.00,meteohub,2013-09-01 02:42:00,
2013-09-01 03:47:00,57.4,50.5,30.44,WNW,288,6.0,10.0,78,0.00,,,0.00,meteohub,2013-09-01 02:47:00,
2013-09-01 03:52:00,57.4,50.2,30.44,WNW,282,6.0,10.0,77,0.00,,,0.00,meteohub,2013-09-01 02:52:00,
2013-09-01 03:57:00,57.4,50.2,30.43,WSW,254,5.0,13.0,77,0.00,,,0.00,meteohub,2013-09-01 02:57:00,
2013-09-01 04:02:00,57.2,50.0,30.43,NW,319,8.0,13.0,77,0.00,,,0.00,meteohub,2013-09-01 03:02:00,
2013-09-01 04:12:00,57.2,50.0,30.43,WNW,290,4.0,13.0,77,0.00,,,0.00,meteohub,2013-09-01 03:12:00,
2013-09-01 04:17:00,57.2,50.0,30.43,NW,308,5.0,13.0,77,0.00,,,0.00,meteohub,2013-09-01 03:17:00,
2013-09-01 04:22:00,57.0,49.8,30.44,WNW,292,5.0,13.0,77,0.00,,,0.00,meteohub,2013-09-01 03:22:00,
2013-09-01 04:27:00,57.0,49.8,30.44,WNW,300,6.0,13.0,77,0.00,,,0.00,meteohub,2013-09-01 03:27:00,
2013-09-01 04:32:00,57.0,49.8,30.43,West,267,8.0,10.0,77,0.00,,,0.00,meteohub,2013-09-01 03:32:00,
2013-09-01 04:37:00,57.0,49.8,30.43,NW,308,5.0,10.0,77,0.00,,,0.00,meteohub,2013-09-01 03:37:00,
2013-09-01 04:42:00,57.0,49.8,30.43,WNW,292,5.0,10.0,77,0.00,,,0.00,meteohub,2013-09-01 03:42:00,
2013-09-01 04:47:00,57.0,49.8,30.43,NW,306,8.0,10.0,77,0.00,,,0.00,meteohub,2013-09-01 03:47:00,
2013-09-01 04:52:00,57.0,49.8,30.43,NW,311,5.0,13.0,77,0.00,,,0.00,meteohub,2013-09-01 03:52:00,
2013-09-01 04:57:00,57.0,49.5,30.43,WNW,288,4.0,13.0,76,0.00,,,0.00,meteohub,2013-09-01 03:57:00,
2013-09-01 05:02:00,57.0,49.5,30.43,WNW,282,4.0,13.0,76,0.00,,,0.00,meteohub,2013-09-01 04:02:00,
2013-09-01 05:07:00,57.0,49.5,30.43,NW,323,5.0,11.0,76,0.00,,,0.00,meteohub,2013-09-01 04:07:00,
2013-09-01 05:12:00,57.0,49.5,30.43,NW,313,6.0,11.0,76,0.00,,,0.00,meteohub,2013-09-01 04:12:00,
2013-09-01 05:17:00,57.0,49.5,30.43,West,275,2.0,15.0,76,0.00,,,0.00,meteohub,2013-09-01 04:17:00,
2013-09-01 05:22:00,57.0,49.5,30.42,WNW,288,8.0,15.0,76,0.00,,,0.00,meteohub,2013-09-01 04:22:00,
2013-09-01 05:27:00,57.0,49.1,30.42,NNW,338,4.0,14.0,75,0.00,,,0.00,meteohub,2013-09-01 04:27:00,
2013-09-01 05:32:00,57.0,49.5,30.42,NW,312,4.0,14.0,76,0.00,,,0.00,meteohub,2013-09-01 04:32:00,
2013-09-01 05:37:00,57.0,49.5,30.42,NW,319,4.0,13.0,76,0.00,,,0.00,meteohub,2013-09-01 04:37:00,
2013-09-01 05:42:00,57.0,49.5,30.42,NW,304,10.0,15.0,76,0.00,,,0.00,meteohub,2013-09-01 04:42:00,
2013-09-01 05:47:00,57.0,49.5,30.42,WNW,288,5.0,15.0,76,0.00,,,0.00,meteohub,2013-09-01 04:47:00,
2013-09-01 05:52:00,57.0,49.5,30.42,NW,304,4.0,15.0,76,0.00,,,0.00,meteohub,2013-09-01 04:52:00,
2013-09-01 05:57:00,57.0,49.5,30.42,West,273,2.0,13.0,76,0.00,,,0.00,meteohub,2013-09-01 04:57:00,
2013-09-01 06:02:00,57.0,49.5,30.42,WNW,287,5.0,13.0,76,0.00,,,0.00,meteohub,2013-09-01 05:02:00,
2013-09-01 06:07:00,57.0,49.5,30.41,WNW,286,6.0,13.0,76,0.00,,,0.00,meteohub,2013-09-01 05:07:00,
2013-09-01 06:12:00,57.0,49.5,30.41,NW,306,14.0,20.0,76,0.00,,,0.00,meteohub,2013-09-01 05:12:00,
2013-09-01 06:17:00,57.0,49.5,30.41,WNW,286,6.0,20.0,76,0.00,,,0.00,meteohub,2013-09-01 05:17:00,
2013-09-01 06:22:00,57.2,49.6,30.42,WNW,292,8.0,20.0,76,0.00,,,0.00,meteohub,2013-09-01 05:22:00,
2013-09-01 06:27:00,57.2,50.0,30.42,WNW,288,4.0,14.0,77,0.00,,,0.00,meteohub,2013-09-01 05:27:00,
2013-09-01 06:32:00,57.2,50.0,30.42,WNW,283,8.0,14.0,77,0.00,,,0.00,meteohub,2013-09-01 05:32:00,
2013-09-01 06:37:00,57.0,49.8,30.42,WNW,292,8.0,14.0,77,0.00,,,0.00,meteohub,2013-09-01 05:37:00,
2013-09-01 06:47:00,57.0,49.5,30.42,WNW,299,9.0,11.0,76,0.00,,,0.00,meteohub,2013-09-01 05:47:00,
2013-09-01 06:52:00,57.2,49.6,30.42,West,263,8.0,13.0,76,0.00,,,0.00,meteohub,2013-09-01 05:52:00,
2013-09-01 06:57:00,57.0,49.5,30.42,NW,307,8.0,13.0,76,0.00,,,0.00,meteohub,2013-09-01 05:57:00,
2013-09-01 07:02:00,57.4,49.8,30.42,West,267,9.0,16.0,76,0.00,,,0.00,meteohub,2013-09-01 06:02:00,
2013-09-01 07:07:00,57.4,49.8,30.42,WNW,296,6.0,16.0,76,0.00,,,0.00,meteohub,2013-09-01 06:07:00,
2013-09-01 07:12:00,57.4,49.8,30.43,NW,317,6.0,16.0,76,0.00,,,0.00,meteohub,2013-09-01 06:12:00,
2013-09-01 07:17:00,57.4,49.8,30.42,WNW,287,8.0,11.0,76,0.00,,,0.00,meteohub,2013-09-01 06:17:00,
2013-09-01 07:22:00,57.6,50.0,30.43,WNW,297,5.0,11.0,76,0.00,,,0.00,meteohub,2013-09-01 06:22:00,
2013-09-01 07:27:00,57.6,50.0,30.43,West,259,2.0,11.0,76,0.00,,,0.00,meteohub,2013-09-01 06:27:00,
2013-09-01 07:32:00,57.6,50.4,30.42,NW,304,2.0,15.0,77,0.00,,,0.00,meteohub,2013-09-01 06:32:00,
2013-09-01 07:42:00,57.7,50.5,30.42,NNW,342,9.0,14.0,77,0.00,,,0.00,meteohub,2013-09-01 06:42:00,
2013-09-01 07:47:00,57.9,50.7,30.42,NW,321,5.0,14.0,77,0.00,,,0.00,meteohub,2013-09-01 06:47:00,
2013-09-01 07:52:00,57.7,50.5,30.42,West,275,11.0,14.0,77,0.00,,,0.00,meteohub,2013-09-01 06:52:00,
2013-09-01 07:57:00,57.7,50.5,30.42,NW,306,4.0,14.0,77,0.00,,,0.00,meteohub,2013-09-01 06:57:00,
2013-09-01 08:02:00,57.7,50.5,30.42,West,281,6.0,15.0,77,0.00,,,0.00,meteohub,2013-09-01 07:02:00,
2013-09-01 08:07:00,57.7,50.5,30.42,West,281,5.0,15.0,77,0.00,,,0.00,meteohub,2013-09-01 07:07:00,
2013-09-01 08:12:00,57.9,50.7,30.42,NW,309,5.0,16.0,77,0.00,,,0.00,meteohub,2013-09-01 07:12:00,
2013-09-01 08:17:00,57.9,50.7,30.42,WNW,293,5.0,16.0,77,0.00,,,0.00,meteohub,2013-09-01 07:17:00,
2013-09-01 08:22:00,57.7,50.5,30.43,WNW,285,5.0,16.0,77,0.00,,,0.00,meteohub,2013-09-01 07:22:00,
2013-09-01 08:27:00,57.7,50.5,30.43,WNW,286,5.0,14.0,77,0.00,,,0.00,meteohub,2013-09-01 07:27:00,
2013-09-01 08:32:00,57.7,50.5,30.42,WNW,286,5.0,14.0,77,0.00,,,0.00,meteohub,2013-09-01 07:32:00,
2013-09-01 08:37:00,57.7,50.5,30.42,WNW,303,2.0,14.0,77,0.00,,,0.00,meteohub,2013-09-01 07:37:00,
2013-09-01 08:47:00,57.9,51.1,30.42,West,267,6.0,13.0,78,0.00,,,0.00,meteohub,2013-09-01 07:47:00,
2013-09-01 08:52:00,58.1,51.3,30.42,West,279,9.0,15.0,78,0.00,,,0.00,meteohub,2013-09-01 07:52:00,
2013-09-01 08:57:00,58.1,51.3,30.43,WNW,302,8.0,15.0,78,0.00,,,0.00,meteohub,2013-09-01 07:57:00,
2013-09-01 09:02:00,58.3,51.1,30.43,WNW,296,2.0,16.0,77,0.00,,,0.00,meteohub,2013-09-01 08:02:00,
2013-09-01 09:07:00,58.3,51.1,30.43,West,279,8.0,16.0,77,0.00,,,0.00,meteohub,2013-09-01 08:07:00,
2013-09-01 09:12:00,58.3,51.1,30.43,WNW,290,6.0,16.0,77,0.00,,,0.00,meteohub,2013-09-01 08:12:00,
2013-09-01 09:17:00,58.3,51.1,30.43,WSW,246,8.0,16.0,77,0.00,,,0.00,meteohub,2013-09-01 08:17:00,
2013-09-01 09:22:00,58.3,51.1,30.42,WNW,286,9.0,16.0,77,0.00,,,0.00,meteohub,2013-09-01 08:22:00,
2013-09-01 09:27:00,58.5,51.6,30.43,WNW,284,5.0,15.0,78,0.00,,,0.00,meteohub,2013-09-01 08:27:00,
2013-09-01 09:32:00,58.6,51.8,30.42,SW,227,8.0,15.0,78,0.00,,,0.00,meteohub,2013-09-01 08:32:00,
2013-09-01 09:37:00,58.8,52.0,30.42,WNW,282,6.0,13.0,78,0.00,,,0.00,meteohub,2013-09-01 08:37:00,
2013-09-01 09:42:00,59.2,52.3,30.42,West,269,4.0,15.0,78,0.00,,,0.00,meteohub,2013-09-01 08:42:00,
2013-09-01 09:47:00,58.8,51.6,30.42,WNW,283,6.0,16.0,77,0.00,,,0.00,meteohub,2013-09-01 08:47:00,
2013-09-01 09:52:00,59.0,51.8,30.43,WNW,294,4.0,16.0,77,0.00,,,0.00,meteohub,2013-09-01 08:52:00,
2013-09-01 09:57:00,59.2,52.3,30.42,West,273,5.0,16.0,78,0.00,,,0.00,meteohub,2013-09-01 08:57:00,
2013-09-01 10:02:00,59.2,52.3,30.42,SW,219,4.0,15.0,78,0.00,,,0.00,meteohub,2013-09-01 09:02:00,
2013-09-01 10:07:00,59.2,52.0,30.42,NNW,333,2.0,15.0,77,0.00,,,0.00,meteohub,2013-09-01 09:07:00,
2013-09-01 10:12:00,59.4,52.2,30.42,WSW,258,5.0,15.0,77,0.00,,,0.00,meteohub,2013-09-01 09:12:00,
2013-09-01 10:17:00,59.5,52.3,30.42,NW,307,5.0,15.0,77,0.00,,,0.00,meteohub,2013-09-01 09:17:00,
2013-09-01 10:22:00,59.5,52.0,30.41,WSW,254,6.0,15.0,76,0.00,,,0.00,meteohub,2013-09-01 09:22:00,
2013-09-01 10:27:00,59.5,52.3,30.42,NW,326,5.0,15.0,77,0.00,,,0.00,meteohub,2013-09-01 09:27:00,
2013-09-01 10:32:00,59.5,52.0,30.42,West,269,4.0,13.0,76,0.00,,,0.00,meteohub,2013-09-01 09:32:00,
2013-09-01 10:37:00,59.7,52.5,30.41,NW,320,5.0,13.0,77,0.00,,,0.00,meteohub,2013-09-01 09:37:00,
2013-09-01 10:42:00,60.1,52.9,30.41,WSW,257,4.0,15.0,77,0.00,,,0.00,meteohub,2013-09-01 09:42:00,
2013-09-01 10:47:00,60.1,52.9,30.41,NNW,332,5.0,15.0,77,0.00,,,0.00,meteohub,2013-09-01 09:47:00,
2013-09-01 10:52:00,60.1,52.9,30.42,NW,310,2.0,15.0,77,0.00,,,0.00,meteohub,2013-09-01 09:52:00,
2013-09-01 10:57:00,59.9,52.7,30.41,SSW,197,5.0,14.0,77,0.00,,,0.00,meteohub,2013-09-01 09:57:00,
2013-09-01 11:02:00,60.1,52.9,30.41,WSW,251,2.0,14.0,77,0.00,,,0.00,meteohub,2013-09-01 10:02:00,
2013-09-01 11:07:00,60.1,52.5,30.41,West,263,8.0,13.0,76,0.00,,,0.00,meteohub,2013-09-01 10:07:00,
2013-09-01 11:12:00,60.4,52.2,30.42,West,273,14.0,14.0,74,0.00,,,0.00,meteohub,2013-09-01 10:12:00,
2013-09-01 11:17:00,60.3,52.3,30.42,West,270,8.0,14.0,75,0.00,,,0.00,meteohub,2013-09-01 10:17:00,
2013-09-01 11:22:00,60.3,52.3,30.42,NNW,334,9.0,16.0,75,0.00,,,0.00,meteohub,2013-09-01 10:22:00,
2013-09-01 11:27:00,60.4,52.5,30.42,NW,306,8.0,18.0,75,0.00,,,0.00,meteohub,2013-09-01 10:27:00,
2013-09-01 11:32:00,60.3,52.0,30.42,NW,305,5.0,18.0,74,0.00,,,0.00,meteohub,2013-09-01 10:32:00,
2013-09-01 11:37:00,60.4,52.9,30.41,West,261,5.0,18.0,76,0.00,,,0.00,meteohub,2013-09-01 10:37:00,
2013-09-01 11:42:00,60.4,52.9,30.41,West,264,5.0,16.0,76,0.00,,,0.00,meteohub,2013-09-01 10:42:00,
2013-09-01 11:47:00,61.0,52.7,30.41,West,277,5.0,14.0,74,0.00,,,0.00,meteohub,2013-09-01 10:47:00,
2013-09-01 11:52:00,61.2,52.9,30.41,NW,309,13.0,14.0,74,0.00,,,0.00,meteohub,2013-09-01 10:52:00,
2013-09-01 11:57:00,60.8,52.9,30.41,NW,307,4.0,14.0,75,0.00,,,0.00,meteohub,2013-09-01 10:57:00,
2013-09-01 12:02:00,60.8,52.5,30.41,WNW,297,10.0,14.0,74,0.00,,,0.00,meteohub,2013-09-01 11:02:00,
2013-09-01 12:07:00,61.0,53.1,30.42,NNW,338,6.0,14.0,75,0.00,,,0.00,meteohub,2013-09-01 11:07:00,
2013-09-01 12:12:00,61.0,52.7,30.41,SW,214,6.0,18.0,74,0.00,,,0.00,meteohub,2013-09-01 11:12:00,
2013-09-01 12:17:00,61.2,53.2,30.41,NW,305,5.0,19.0,75,0.00,,,0.00,meteohub,2013-09-01 11:17:00,
2013-09-01 12:22:00,61.0,53.1,30.41,NW,324,4.0,19.0,75,0.00,,,0.00,meteohub,2013-09-01 11:22:00,
2013-09-01 12:27:00,61.2,53.2,30.41,WSW,248,9.0,19.0,75,0.00,,,0.00,meteohub,2013-09-01 11:27:00,
2013-09-01 12:32:00,61.0,53.1,30.41,West,260,1.0,11.0,75,0.00,,,0.00,meteohub,2013-09-01 11:32:00,
2013-09-01 12:37:00,61.3,53.1,30.41,NW,308,5.0,14.0,74,0.00,,,0.00,meteohub,2013-09-01 11:37:00,
2013-09-01 12:42:00,61.5,53.2,30.41,NW,308,9.0,14.0,74,0.00,,,0.00,meteohub,2013-09-01 11:42:00,
2013-09-01 12:47:00,61.7,53.2,30.41,NW,316,5.0,14.0,74,0.00,,,0.00,meteohub,2013-09-01 11:47:00,
2013-09-01 12:52:00,61.5,53.6,30.40,NW,306,4.0,18.0,75,0.00,,,0.00,meteohub,2013-09-01 11:52:00,
2013-09-01 12:57:00,61.3,53.4,30.40,NNW,331,8.0,18.0,75,0.00,,,0.00,meteohub,2013-09-01 11:57:00,
2013-09-01 13:02:00,61.3,53.4,30.40,NNW,337,5.0,18.0,75,0.00,,,0.00,meteohub,2013-09-01 12:02:00,
2013-09-01 13:07:00,62.1,53.6,30.40,WNW,284,11.0,13.0,74,0.00,,,0.00,meteohub,2013-09-01 12:07:00,
2013-09-01 13:12:00,62.1,53.6,30.40,WNW,302,5.0,14.0,74,0.00,,,0.00,meteohub,2013-09-01 12:12:00,
2013-09-01 13:17:00,62.1,53.2,30.40,WSW,258,10.0,19.0,73,0.00,,,0.00,meteohub,2013-09-01 12:17:00,
2013-09-01 13:22:00,62.2,53.4,30.40,NNW,337,4.0,19.0,73,0.00,,,0.00,meteohub,2013-09-01 12:22:00,
2013-09-01 13:27:00,62.4,54.0,30.40,WNW,294,1.0,19.0,74,0.00,,,0.00,meteohub,2013-09-01 12:27:00,
2013-09-01 13:32:00,62.2,53.8,30.40,SW,230,11.0,14.0,74,0.00,,,0.00,meteohub,2013-09-01 12:32:00,
2013-09-01 13:37:00,61.9,53.8,30.40,WNW,300,2.0,14.0,75,0.00,,,0.00,meteohub,2013-09-01 12:37:00,
2013-09-01 13:42:00,61.9,53.4,30.40,South,182,6.0,14.0,74,0.00,,,0.00,meteohub,2013-09-01 12:42:00,
2013-09-01 13:47:00,62.1,54.0,30.40,SW,232,14.0,14.0,75,0.00,,,0.00,meteohub,2013-09-01 12:47:00,
2013-09-01 13:52:00,61.7,53.2,30.40,West,262,6.0,14.0,74,0.00,,,0.00,meteohub,2013-09-01 12:52:00,
2013-09-01 13:57:00,61.5,53.6,30.40,SSW,202,9.0,14.0,75,0.00,,,0.00,meteohub,2013-09-01 12:57:00,
2013-09-01 14:02:00,61.7,53.8,30.40,SW,234,5.0,16.0,75,0.00,,,0.00,meteohub,2013-09-01 13:02:00,
2013-09-01 14:07:00,61.5,53.6,30.40,West,269,4.0,16.0,75,0.00,,,0.00,meteohub,2013-09-01 13:07:00,
2013-09-01 14:12:00,61.7,53.2,30.40,WSW,257,4.0,16.0,74,0.00,,,0.00,meteohub,2013-09-01 13:12:00,
2013-09-01 14:17:00,62.2,53.8,30.40,SW,236,4.0,16.0,74,0.00,,,0.00,meteohub,2013-09-01 13:17:00,
2013-09-01 14:22:00,62.4,54.0,30.40,West,279,6.0,16.0,74,0.00,,,0.00,meteohub,2013-09-01 13:22:00,
2013-09-01 14:27:00,63.0,54.5,30.40,WSW,239,5.0,16.0,74,0.00,,,0.00,meteohub,2013-09-01 13:27:00,
2013-09-01 14:32:00,62.8,54.0,30.40,NNW,331,5.0,15.0,73,0.00,,,0.00,meteohub,2013-09-01 13:32:00,
2013-09-01 14:37:00,62.8,54.0,30.40,NNW,336,2.0,15.0,73,0.00,,,0.00,meteohub,2013-09-01 13:37:00,
2013-09-01 14:42:00,62.8,54.3,30.40,WNW,294,5.0,15.0,74,0.00,,,0.00,meteohub,2013-09-01 13:42:00,
2013-09-01 14:47:00,62.4,54.0,30.40,NW,316,4.0,19.0,74,0.00,,,0.00,meteohub,2013-09-01 13:47:00,
2013-09-01 14:52:00,63.1,54.7,30.40,NW,320,5.0,19.0,74,0.00,,,0.00,meteohub,2013-09-01 13:52:00,
2013-09-01 14:57:00,63.9,55.0,30.40,NW,309,4.0,15.0,73,0.00,,,0.00,meteohub,2013-09-01 13:57:00,
2013-09-01 15:02:00,64.0,55.2,30.40,NW,310,8.0,16.0,73,0.00,,,0.00,meteohub,2013-09-01 14:02:00,
2013-09-01 15:07:00,64.0,55.2,30.39,WSW,250,4.0,16.0,73,0.00,,,0.00,meteohub,2013-09-01 14:07:00,
2013-09-01 15:12:00,63.5,54.7,30.39,SW,234,6.0,18.0,73,0.00,,,0.00,meteohub,2013-09-01 14:12:00,
2013-09-01 15:17:00,63.1,54.3,30.39,WSW,251,8.0,19.0,73,0.00,,,0.00,meteohub,2013-09-01 14:17:00,
2013-09-01 15:22:00,63.0,54.5,30.39,WSW,248,6.0,19.0,74,0.00,,,0.00,meteohub,2013-09-01 14:22:00,
2013-09-01 15:27:00,63.0,54.5,30.39,SSW,213,5.0,19.0,74,0.00,,,0.00,meteohub,2013-09-01 14:27:00,
2013-09-01 15:32:00,62.8,54.3,30.39,SSE,161,8.0,16.0,74,0.00,,,0.00,meteohub,2013-09-01 14:32:00,
2013-09-01 15:37:00,63.1,54.3,30.39,WNW,303,8.0,16.0,73,0.00,,,0.00,meteohub,2013-09-01 14:37:00,
2013-09-01 15:42:00,63.1,54.7,30.39,North,351,4.0,18.0,74,0.00,,,0.00,meteohub,2013-09-01 14:42:00,
2013-09-01 15:47:00,63.3,54.9,30.39,West,275,6.0,19.0,74,0.00,,,0.00,meteohub,2013-09-01 14:47:00,
2013-09-01 15:52:00,63.9,55.4,30.39,WNW,298,8.0,19.0,74,0.00,,,0.00,meteohub,2013-09-01 14:52:00,
2013-09-01 15:57:00,63.9,55.4,30.39,West,259,5.0,19.0,74,0.00,,,0.00,meteohub,2013-09-01 14:57:00,
2013-09-01 16:02:00,63.3,54.9,30.39,West,263,4.0,16.0,74,0.00,,,0.00,meteohub,2013-09-01 15:02:00,
2013-09-01 16:07:00,63.7,55.2,30.38,West,277,6.0,16.0,74,0.00,,,0.00,meteohub,2013-09-01 15:07:00,
2013-09-01 16:12:00,63.7,54.9,30.38,WNW,292,4.0,16.0,73,0.00,,,0.00,meteohub,2013-09-01 15:12:00,
2013-09-01 16:17:00,63.7,55.2,30.39,West,263,4.0,15.0,74,0.00,,,0.00,meteohub,2013-09-01 15:17:00,
2013-09-01 16:22:00,63.3,54.9,30.38,WNW,303,13.0,16.0,74,0.00,,,0.00,meteohub,2013-09-01 15:22:00,
2013-09-01 16:27:00,63.7,55.2,30.38,WNW,285,13.0,20.0,74,0.00,,,0.00,meteohub,2013-09-01 15:27:00,
2013-09-01 16:32:00,63.3,54.5,30.38,WSW,258,5.0,20.0,73,0.00,,,0.00,meteohub,2013-09-01 15:32:00,
2013-09-01 16:37:00,63.5,55.0,30.38,NW,315,10.0,20.0,74,0.00,,,0.00,meteohub,2013-09-01 15:37:00,
2013-09-01 16:42:00,63.1,54.3,30.38,SW,233,2.0,21.0,73,0.00,,,0.00,meteohub,2013-09-01 15:42:00,
2013-09-01 16:47:00,63.1,54.3,30.38,South,191,9.0,21.0,73,0.00,,,0.00,meteohub,2013-09-01 15:47:00,
2013-09-01 16:52:00,63.0,54.1,30.38,West,269,4.0,21.0,73,0.00,,,0.00,meteohub,2013-09-01 15:52:00,
2013-09-01 16:57:00,63.0,54.5,30.38,West,267,6.0,18.0,74,0.00,,,0.00,meteohub,2013-09-01 15:57:00,
2013-09-01 17:02:00,63.1,54.7,30.37,WSW,254,9.0,18.0,74,0.00,,,0.00,meteohub,2013-09-01 16:02:00,
2013-09-01 17:07:00,63.1,54.3,30.37,WNW,290,9.0,18.0,73,0.00,,,0.00,meteohub,2013-09-01 16:07:00,
2013-09-01 17:12:00,63.3,54.9,30.37,WNW,288,2.0,18.0,74,0.00,,,0.00,meteohub,2013-09-01 16:12:00,
2013-09-01 17:17:00,63.3,54.5,30.38,SW,231,9.0,15.0,73,0.00,,,0.00,meteohub,2013-09-01 16:17:00,
2013-09-01 17:22:00,63.3,54.9,30.38,NNW,333,8.0,14.0,74,0.00,,,0.00,meteohub,2013-09-01 16:22:00,
2013-09-01 17:27:00,63.1,54.7,30.37,NW,307,10.0,16.0,74,0.00,,,0.00,meteohub,2013-09-01 16:27:00,
2013-09-01 17:32:00,62.8,54.7,30.37,NNE,33,9.0,16.0,75,0.00,,,0.00,meteohub,2013-09-01 16:32:00,
2013-09-01 17:37:00,62.4,54.3,30.37,North,355,4.0,16.0,75,0.00,,,0.00,meteohub,2013-09-01 16:37:00,
2013-09-01 17:42:00,62.6,54.5,30.37,WNW,298,5.0,18.0,75,0.00,,,0.00,meteohub,2013-09-01 16:42:00,
2013-09-01 17:47:00,62.6,54.1,30.37,WNW,282,5.0,18.0,74,0.00,,,0.00,meteohub,2013-09-01 16:47:00,
2013-09-01 17:52:00,62.6,54.1,30.36,WNW,302,5.0,15.0,74,0.00,,,0.00,meteohub,2013-09-01 16:52:00,
2013-09-01 17:57:00,62.2,53.8,30.36,West,280,13.0,18.0,74,0.00,,,0.00,meteohub,2013-09-01 16:57:00,
2013-09-01 18:02:00,62.4,54.3,30.36,NW,306,6.0,18.0,75,0.00,,,0.00,meteohub,2013-09-01 17:02:00,
2013-09-01 18:07:00,62.4,54.7,30.36,West,263,8.0,18.0,76,0.00,,,0.00,meteohub,2013-09-01 17:07:00,
2013-09-01 18:12:00,62.4,54.0,30.36,WNW,287,4.0,15.0,74,0.00,,,0.00,meteohub,2013-09-01 17:12:00,
2013-09-01 18:17:00,62.2,54.1,30.36,West,279,10.0,13.0,75,0.00,,,0.00,meteohub,2013-09-01 17:17:00,
2013-09-01 18:22:00,62.2,54.5,30.36,SSW,207,8.0,14.0,76,0.00,,,0.00,meteohub,2013-09-01 17:22:00,
2013-09-01 18:27:00,62.1,54.3,30.36,NW,310,15.0,15.0,76,0.00,,,0.00,meteohub,2013-09-01 17:27:00,
2013-09-01 18:32:00,62.1,54.3,30.36,West,260,5.0,15.0,76,0.00,,,0.00,meteohub,2013-09-01 17:32:00,
2013-09-01 18:37:00,62.1,54.7,30.36,WNW,296,4.0,15.0,77,0.00,,,0.00,meteohub,2013-09-01 17:37:00,
2013-09-01 18:42:00,62.1,54.7,30.36,West,271,5.0,15.0,77,0.00,,,0.00,meteohub,2013-09-01 17:42:00,
2013-09-01 18:47:00,62.1,54.7,30.36,SW,230,2.0,14.0,77,0.00,,,0.00,meteohub,2013-09-01 17:47:00,
2013-09-01 18:52:00,62.1,54.3,30.36,WSW,252,5.0,15.0,76,0.00,,,0.00,meteohub,2013-09-01 17:52:00,
2013-09-01 18:57:00,62.1,54.7,30.36,WNW,300,1.0,15.0,77,0.00,,,0.00,meteohub,2013-09-01 17:57:00,
2013-09-01 19:02:00,62.1,54.7,30.36,SW,217,8.0,18.0,77,0.00,,,0.00,meteohub,2013-09-01 18:02:00,
2013-09-01 19:07:00,62.1,55.0,30.36,WNW,297,2.0,18.0,78,0.00,,,0.00,meteohub,2013-09-01 18:07:00,
2013-09-01 19:12:00,61.9,54.7,30.36,SW,215,5.0,18.0,77,0.00,,,0.00,meteohub,2013-09-01 18:12:00,
2013-09-01 19:17:00,61.9,54.7,30.36,NW,307,5.0,11.0,77,0.00,,,0.00,meteohub,2013-09-01 18:17:00,
2013-09-01 19:22:00,61.7,54.5,30.36,West,280,4.0,13.0,77,0.00,,,0.00,meteohub,2013-09-01 18:22:00,
2013-09-01 19:27:00,61.5,54.7,30.36,West,277,6.0,13.0,78,0.00,,,0.00,meteohub,2013-09-01 18:27:00,
2013-09-01 19:32:00,61.3,54.5,30.36,WNW,284,6.0,13.0,78,0.00,,,0.00,meteohub,2013-09-01 18:32:00,
2013-09-01 19:37:00,61.3,54.5,30.36,SW,219,6.0,15.0,78,0.00,,,0.00,meteohub,2013-09-01 18:37:00,
2013-09-01 19:42:00,61.3,54.9,30.36,West,280,5.0,15.0,79,0.00,,,0.00,meteohub,2013-09-01 18:42:00,
2013-09-01 19:47:00,61.3,54.9,30.36,NW,309,8.0,15.0,79,0.00,,,0.00,meteohub,2013-09-01 18:47:00,
2013-09-01 19:52:00,61.2,54.7,30.35,WNW,296,5.0,14.0,79,0.00,,,0.00,meteohub,2013-09-01 18:52:00,
2013-09-01 19:57:00,61.2,54.7,30.35,WNW,301,5.0,14.0,79,0.00,,,0.00,meteohub,2013-09-01 18:57:00,
2013-09-01 20:02:00,61.2,54.7,30.35,West,273,6.0,15.0,79,0.00,,,0.00,meteohub,2013-09-01 19:02:00,
2013-09-01 20:07:00,61.2,54.9,30.36,WNW,286,10.0,15.0,80,0.00,,,0.00,meteohub,2013-09-01 19:07:00,
2013-09-01 20:12:00,61.0,54.7,30.36,WNW,289,9.0,15.0,80,0.00,,,0.00,meteohub,2013-09-01 19:12:00,
2013-09-01 20:17:00,60.8,54.7,30.36,WNW,296,2.0,15.0,80,0.00,,,0.00,meteohub,2013-09-01 19:17:00,
2013-09-01 20:22:00,60.8,54.9,30.36,WNW,291,2.0,15.0,81,0.00,,,0.00,meteohub,2013-09-01 19:22:00,
2013-09-01 20:27:00,61.0,55.0,30.36,WNW,286,6.0,15.0,81,0.00,,,0.00,meteohub,2013-09-01 19:27:00,
2013-09-01 20:32:00,61.2,55.2,30.36,WSW,256,5.0,13.0,81,0.00,,,0.00,meteohub,2013-09-01 19:32:00,
2013-09-01 20:37:00,61.2,55.2,30.36,SW,232,5.0,11.0,81,0.00,,,0.00,meteohub,2013-09-01 19:37:00,
2013-09-01 20:42:00,61.2,54.9,30.35,West,281,6.0,11.0,80,0.00,,,0.00,meteohub,2013-09-01 19:42:00,
2013-09-01 20:47:00,61.3,55.4,30.36,WSW,244,8.0,11.0,81,0.00,,,0.00,meteohub,2013-09-01 19:47:00,
2013-09-01 20:52:00,61.2,54.9,30.36,West,263,8.0,11.0,80,0.00,,,0.00,meteohub,2013-09-01 19:52:00,
2013-09-01 20:57:00,61.2,54.9,30.36,West,267,5.0,13.0,80,0.00,,,0.00,meteohub,2013-09-01 19:57:00,
2013-09-01 21:02:00,61.2,55.2,30.36,NW,320,5.0,13.0,81,0.00,,,0.00,meteohub,2013-09-01 20:02:00,
2013-09-01 21:07:00,61.2,55.6,30.36,NW,314,5.0,13.0,82,0.00,,,0.00,meteohub,2013-09-01 20:07:00,
2013-09-01 21:12:00,61.2,55.6,30.36,NW,309,5.0,11.0,82,0.00,,,0.00,meteohub,2013-09-01 20:12:00,
2013-09-01 21:17:00,61.2,55.6,30.36,NW,315,5.0,13.0,82,0.00,,,0.00,meteohub,2013-09-01 20:17:00,
2013-09-01 21:22:00,61.2,55.6,30.36,WNW,302,8.0,13.0,82,0.00,,,0.00,meteohub,2013-09-01 20:22:00,
2013-09-01 21:27:00,61.0,55.4,30.37,WSW,249,5.0,14.0,82,0.00,,,0.00,meteohub,2013-09-01 20:27:00,
2013-09-01 21:32:00,61.0,55.4,30.36,NW,313,5.0,14.0,82,0.00,,,0.00,meteohub,2013-09-01 20:32:00,
2013-09-01 21:37:00,61.0,55.8,30.36,SSW,206,5.0,14.0,83,0.00,,,0.00,meteohub,2013-09-01 20:37:00,
2013-09-01 21:42:00,61.0,55.8,30.36,West,259,5.0,13.0,83,0.00,,,0.00,meteohub,2013-09-01 20:42:00,
2013-09-01 21:47:00,61.0,56.1,30.36,WNW,300,2.0,13.0,84,0.00,,,0.00,meteohub,2013-09-01 20:47:00,
2013-09-01 21:52:00,60.8,55.9,30.36,West,260,6.0,13.0,84,0.00,,,0.00,meteohub,2013-09-01 20:52:00,
2013-09-01 21:57:00,60.8,55.9,30.36,WNW,292,4.0,13.0,84,0.00,,,0.00,meteohub,2013-09-01 20:57:00,
2013-09-01 22:02:00,60.8,56.3,30.36,West,268,2.0,13.0,85,0.00,,,0.00,meteohub,2013-09-01 21:02:00,
2013-09-01 22:07:00,60.6,56.1,30.36,NW,314,11.0,13.0,85,0.00,,,0.00,meteohub,2013-09-01 21:07:00,
2013-09-01 22:12:00,60.6,56.1,30.36,West,268,1.0,14.0,85,0.00,,,0.00,meteohub,2013-09-01 21:12:00,
2013-09-01 22:17:00,60.4,56.3,30.36,WNW,297,2.0,16.0,86,0.00,,,0.00,meteohub,2013-09-01 21:17:00,
2013-09-01 22:22:00,60.3,56.1,30.36,SW,232,5.0,16.0,86,0.00,,,0.00,meteohub,2013-09-01 21:22:00,
2013-09-01 22:27:00,60.3,56.1,30.36,WSW,257,2.0,16.0,86,0.00,,,0.00,meteohub,2013-09-01 21:27:00,
2013-09-01 22:32:00,60.3,56.1,30.36,NNE,25,9.0,22.0,86,0.00,,,0.00,meteohub,2013-09-01 21:32:00,
2013-09-01 22:37:00,60.3,56.3,30.35,North,9,4.0,22.0,87,0.00,,,0.00,meteohub,2013-09-01 21:37:00,
2013-09-01 22:42:00,60.1,56.1,30.35,SSW,202,6.0,22.0,87,0.00,,,0.00,meteohub,2013-09-01 21:42:00,
2013-09-01 22:47:00,60.1,56.1,30.36,South,176,4.0,14.0,87,0.00,,,0.00,meteohub,2013-09-01 21:47:00,
2013-09-01 22:52:00,60.3,56.3,30.35,South,190,1.0,14.0,87,0.00,,,0.00,meteohub,2013-09-01 21:52:00,
2013-09-01 22:57:00,60.3,56.3,30.35,WSW,252,2.0,14.0,87,0.00,,,0.00,meteohub,2013-09-01 21:57:00,
2013-09-01 23:02:00,60.4,56.5,30.35,SW,220,10.0,16.0,87,0.00,,,0.00,meteohub,2013-09-01 22:02:00,
2013-09-01 23:07:00,60.6,56.7,30.35,ENE,71,2.0,16.0,87,0.00,,,0.00,meteohub,2013-09-01 22:07:00,
2013-09-01 23:12:00,60.6,56.7,30.35,East,84,1.0,14.0,87,0.00,,,0.00,meteohub,2013-09-01 22:12:00,
2013-09-01 23:17:00,60.4,56.5,30.35,SSE,148,2.0,14.0,87,0.00,,,0.00,meteohub,2013-09-01 22:17:00,
2013-09-01 23:22:00,60.4,56.5,30.35,WSW,246,1.0,14.0,87,0.00,,,0.00,meteohub,2013-09-01 22:22:00,
2013-09-01 23:27:00,60.4,56.5,30.35,WSW,253,2.0,14.0,87,0.00,,,0.00,meteohub,2013-09-01 22:27:00,
2013-09-01 23:32:00,60.4,56.8,30.35,NNW,333,4.0,16.0,88,0.00,,,0.00,meteohub,2013-09-01 22:32:00,
2013-09-01 23:37:00,60.3,56.7,30.35,West,261,8.0,16.0,88,0.00,,,0.00,meteohub,2013-09-01 22:37:00,
2013-09-01 23:42:00,60.4,57.2,30.35,SSE,152,2.0,15.0,89,0.00,,,0.00,meteohub,2013-09-01 22:42:00,
2013-09-01 23:47:00,60.4,57.2,30.35,NNW,345,5.0,15.0,89,0.00,,,0.00,meteohub,2013-09-01 22:47:00,
2013-09-01 23:52:00,60.4,57.2,30.35,SW,221,4.0,15.0,89,0.00,,,0.00,meteohub,2013-09-01 22:52:00,
2013-09-01 23:57:00,60.4,57.2,30.35,SW,229,10.0,13.0,89,0.00,,,0.00,meteohub,2013-09-01 22:57:00,